Regional Weather Roundup
Issued by NWS Little Rock, AR

Home | Current Version | Previous Version | Graphics & Text | Print | Product List | Glossary On
Versions: 1 2 3 4 5 6 7 8 9 10 11 12 13 14 15 16 17 18 19 20 21 22 23 24 25 26 27 28 29 30 31 32 33 34 35 36 37 38 39 40 41 42 43 44 45 46 47 48 49 50
000
ASUS44 KLZK 220612
RWRLZK

WEATHER ROUNDUP FOR ARKANSAS
NATIONAL WEATHER SERVICE LITTLE ROCK AR
100 AM CDT TUE AUG 22 2017

NOTE: "FAIR" INDICATES FEW OR NO CLOUDS BELOW 12,000 FEET WITH NO
SIGNIFICANT WEATHER AND/OR OBSTRUCTIONS TO VISIBILITY.

ARZ001-003-010-029-220700-
NORTHWEST ARKANSAS

CITY           SKY/WX    TMP DP  RH WIND       PRES   REMARKS
FAYETTEVILLE   CLEAR     74  73  97 S3        30.09F
6HR MIN TEMP:  73; 6HR MAX TEMP:  84;

FORT SMITH     CLEAR     78  75  90 CALM      30.05F
6HR MIN TEMP:  77; 6HR MAX TEMP:  90;

HARRISON       CLEAR     77  73  87 S7        30.09F
6HR MIN TEMP:  76; 6HR MAX TEMP:  84;

BENTONVILLE    CLEAR     77  72  83 S6        30.08F
6HR MIN TEMP:  77; 6HR MAX TEMP:  86;

ROGERS         PTCLDY    77  73  87 S10       30.08F
6HR MIN TEMP:  77; 6HR MAX TEMP:  87;

HIGHFILL       CLEAR     76  73  91 S7        30.08F
6HR MIN TEMP:  75; 6HR MAX TEMP:  86;

$$

ARZ004-005-016-220700-
NORTH CENTRAL ARKANSAS

CITY           SKY/WX    TMP DP  RH WIND       PRES   REMARKS
FLIPPIN        CLEAR     79  70  73 SW5       30.04F
6HR MIN TEMP:  79; 6HR MAX TEMP:  90;

MTN HOME       CLEAR     76  75  97 SW5       30.06F
6HR MIN TEMP:  75; 6HR MAX TEMP:  86;

$$

ARZ040-041-220700-
WEST CENTRAL ARKANSAS

CITY           SKY/WX    TMP DP  RH WIND       PRES   REMARKS
MENA           CLEAR     81  81 100 CALM      30.10F HX  91
MOUNT IDA      PTCLDY    77  73  87 CALM      30.07F
6HR MIN TEMP:  77; 6HR MAX TEMP:  87;

$$

ARZ009-017-025-026-028-220700-
NORTHEAST ARKANSAS

CITY           SKY/WX    TMP DP  RH WIND       PRES   REMARKS
CORNING        FAIR      79  79 100 SW7       30.05R
JONESBORO      CLEAR     78  76  93 CALM      30.04F
6HR MIN TEMP:  78; 6HR MAX TEMP:  88;

NEWPORT        CLEAR     78  75  90 S6        30.06S
6HR MIN TEMP:  77; 6HR MAX TEMP:  88;

WALNUT RIDGE   CLEAR     77  73  88 S6        30.05S
6HR MIN TEMP:  77; 6HR MAX TEMP:  88;

BLYTHEVILLE    CLEAR     79  76  90 SW6       30.05F
6HR MIN TEMP:  78; 6HR MAX TEMP:  89;

$$

ARZ022-023-033-042-044-220700-
CENTRAL ARKANSAS

CITY           SKY/WX    TMP DP  RH WIND       PRES   REMARKS
LITTLE ROCK    CLEAR     79  76  90 SW3       30.06F
6HR MIN TEMP:  78; 6HR MAX TEMP:  88;

N LITTLE ROCK    N/A     79  74  85 CALM      30.07F
6HR MIN TEMP:  79; 6HR MAX TEMP:  88;

JACKSONVILLE   CLEAR     80  77  88 CALM      30.06F HX  87
6HR MIN TEMP:  79; 6HR MAX TEMP:  89;

CONWAY           N/A     77  77 100 S3        30.05S
SEARCY         CLEAR     75  75 100 CALM      30.08S FOG
6HR MIN TEMP:  76; 6HR MAX TEMP:  89;

HOT SPRINGS    CLEAR     78  76  93 CALM      30.08F
6HR MIN TEMP:  78; 6HR MAX TEMP:  89;

RUSSELLVILLE   CLEAR     76  75  97 SE3       30.06F
6HR MIN TEMP:  75; 6HR MAX TEMP:  87;

CLINTON        FAIR      75  75 100 CALM      30.08S FOG
$$

ARZ036-220700-
EAST ARKANSAS

CITY           SKY/WX    TMP DP  RH WIND       PRES   REMARKS
WEST MEMPHIS   CLEAR     76  75  97 S6        30.05F
6HR MIN TEMP:  76; 6HR MAX TEMP:  88;

$$

ARZ050-053-066-070-073-220700-
SOUTHWEST ARKANSAS

CITY           SKY/WX    TMP DP  RH WIND       PRES   REMARKS
ARKADELPHIA    FAIR      75  75 100 CALM      30.07F
6HR MIN TEMP:  75; 6HR MAX TEMP:  89;

CAMDEN         CLEAR     75  73  94 CALM      30.06S FOG
TEXARKANA      CLEAR     78  74  87 S5        30.07F
6HR MIN TEMP:  78; 6HR MAX TEMP:  88;

EL DORADO      CLEAR     76  75  97 CALM      30.07F
6HR MIN TEMP:  76; 6HR MAX TEMP:  89;

DE QUEEN       FOG       74  74 100 CALM      30.05F VSB 1/4
6HR MIN TEMP:  74; 6HR MAX TEMP:  85;

$$

ARZ056-057-069-220700-
SOUTHEAST ARKANSAS

CITY           SKY/WX    TMP DP  RH WIND       PRES   REMARKS
PINE BLUFF     CLEAR     76  74  93 E5        30.07S
6HR MIN TEMP:  76; 6HR MAX TEMP:  89;

MONTICELLO     CLEAR     77  73  87 CALM      30.07F
6HR MIN TEMP:  76; 6HR MAX TEMP:  90;


$$





USA.gov is the U.S. government's official web portal to all federal, state and local government web resources and services.